GFSSW_prec_pwat_273.txt.gz
Precipitable_Water
0.65 0.63 0.65 0.69 0.67 0.64 0.61 0.59 0.54 0.52 0.50 0.52 0.52 0.51 0.50 0.49 0.48 0.40 0.28 0.33 0.39 0.50 0.58 0.55 0.61 0.58 0.51 0.38 0.41 0.53 0.31 0.26 0.31 0.33 0.34 0.37 0.34 0.33 0.33 0.29 0.27 0.25 0.23 0.22 0.21
0.65 0.65 0.63 0.66 0.65 0.63 0.62 0.60 0.58 0.54 0.53 0.53 0.52 0.50 0.50 0.50 0.40 0.32 0.34 0.39 0.49 0.59 0.46 0.50 0.45 0.49 0.38 0.35 0.34 0.36 0.29 0.29 0.38 0.37 0.33 0.31 0.30 0.29 0.26 0.23 0.22 0.21 0.22 0.20 0.18
0.66 0.64 0.64 0.62 0.63 0.61 0.61 0.58 0.55 0.54 0.54 0.53 0.50 0.50 0.49 0.52 0.35 0.30 0.33 0.43 0.50 0.61 0.50 0.53 0.49 0.42 0.35 0.34 0.29 0.30 0.24 0.30 0.32 0.32 0.30 0.27 0.26 0.26 0.22 0.20 0.20 0.18 0.18 0.15 0.13
0.64 0.65 0.64 0.62 0.61 0.61 0.59 0.56 0.54 0.54 0.53 0.52 0.50 0.48 0.48 0.42 0.24 0.30 0.35 0.43 0.49 0.52 0.51 0.46 0.42 0.36 0.31 0.26 0.29 0.22 0.28 0.28 0.27 0.27 0.25 0.23 0.23 0.21 0.21 0.19 0.20 0.19 0.17 0.12 0.12
0.67 0.65 0.64 0.62 0.62 0.60 0.58 0.54 0.53 0.53 0.51 0.49 0.47 0.46 0.38 0.29 0.27 0.35 0.36 0.41 0.42 0.40 0.37 0.37 0.36 0.34 0.28 0.26 0.26 0.23 0.24 0.26 0.26 0.25 0.23 0.23 0.20 0.19 0.18 0.19 0.20 0.18 0.14 0.12 0.13
0.68 0.66 0.65 0.63 0.61 0.61 0.59 0.54 0.52 0.51 0.50 0.46 0.45 0.44 0.32 0.22 0.35 0.34 0.36 0.35 0.33 0.33 0.32 0.36 0.35 0.36 0.29 0.25 0.23 0.25 0.24 0.23 0.24 0.24 0.23 0.20 0.17 0.17 0.17 0.20 0.18 0.15 0.13 0.14 0.14
0.70 0.64 0.66 0.64 0.62 0.61 0.60 0.56 0.52 0.50 0.49 0.45 0.42 0.38 0.28 0.25 0.33 0.33 0.33 0.33 0.36 0.35 0.30 0.35 0.37 0.31 0.27 0.22 0.25 0.26 0.20 0.21 0.22 0.22 0.21 0.21 0.16 0.16 0.18 0.19 0.16 0.14 0.14 0.15 0.15
0.69 0.66 0.61 0.64 0.63 0.61 0.61 0.57 0.53 0.50 0.47 0.42 0.37 0.30 0.23 0.34 0.34 0.30 0.30 0.27 0.35 0.36 0.32 0.33 0.33 0.27 0.25 0.26 0.24 0.20 0.19 0.14 0.19 0.20 0.21 0.20 0.13 0.17 0.18 0.18 0.16 0.14 0.14 0.14 0.15
0.69 0.68 0.62 0.60 0.63 0.63 0.61 0.57 0.52 0.51 0.47 0.41 0.32 0.27 0.22 0.34 0.28 0.29 0.30 0.26 0.29 0.32 0.33 0.32 0.28 0.24 0.24 0.19 0.16 0.19 0.12 0.14 0.16 0.20 0.19 0.19 0.16 0.19 0.18 0.19 0.17 0.15 0.14 0.14 0.13
0.67 0.67 0.63 0.62 0.63 0.63 0.61 0.56 0.51 0.51 0.44 0.39 0.34 0.24 0.26 0.24 0.28 0.29 0.31 0.29 0.27 0.27 0.25 0.26 0.24 0.18 0.18 0.15 0.08 0.11 0.11 0.14 0.14 0.18 0.18 0.17 0.16 0.18 0.18 0.18 0.17 0.16 0.15 0.13 0.12
0.67 0.67 0.63 0.62 0.63 0.63 0.59 0.45 0.41 0.34 0.34 0.27 0.27 0.24 0.27 0.31 0.32 0.27 0.30 0.27 0.26 0.24 0.18 0.22 0.17 0.15 0.14 0.14 0.15 0.15 0.13 0.13 0.16 0.19 0.17 0.16 0.15 0.17 0.18 0.18 0.17 0.16 0.14 0.12 0.12
0.68 0.66 0.65 0.59 0.62 0.65 0.58 0.43 0.45 0.44 0.29 0.32 0.30 0.29 0.30 0.31 0.24 0.26 0.30 0.22 0.21 0.17 0.21 0.18 0.14 0.18 0.18 0.16 0.15 0.14 0.13 0.12 0.14 0.18 0.17 0.16 0.14 0.17 0.17 0.17 0.17 0.16 0.13 0.12 0.12
0.70 0.67 0.65 0.59 0.60 0.61 0.50 0.47 0.58 0.51 0.30 0.29 0.30 0.28 0.28 0.28 0.23 0.23 0.28 0.22 0.18 0.16 0.17 0.14 0.16 0.19 0.17 0.15 0.14 0.14 0.13 0.12 0.11 0.14 0.18 0.15 0.12 0.13 0.16 0.17 0.16 0.16 0.13 0.12 0.13
0.71 0.67 0.65 0.59 0.51 0.55 0.52 0.61 0.60 0.51 0.22 0.21 0.24 0.27 0.30 0.29 0.22 0.27 0.29 0.23 0.18 0.15 0.15 0.14 0.17 0.16 0.15 0.14 0.16 0.12 0.16 0.14 0.13 0.13 0.11 0.16 0.07 0.12 0.14 0.14 0.14 0.14 0.12 0.11 0.13
0.74 0.69 0.66 0.60 0.53 0.49 0.60 0.66 0.57 0.46 0.13 0.25 0.26 0.34 0.31 0.25 0.26 0.24 0.30 0.23 0.16 0.16 0.17 0.13 0.15 0.15 0.14 0.15 0.16 0.14 0.17 0.16 0.14 0.14 0.15 0.13 0.09 0.11 0.13 0.12 0.13 0.13 0.11 0.11 0.13
0.79 0.71 0.68 0.56 0.54 0.61 0.65 0.66 0.48 0.25 0.14 0.24 0.30 0.26 0.24 0.25 0.25 0.26 0.23 0.24 0.21 0.17 0.17 0.16 0.19 0.17 0.16 0.17 0.17 0.19 0.17 0.17 0.16 0.15 0.10 0.12 0.10 0.09 0.10 0.11 0.12 0.12 0.11 0.09 0.15
0.87 0.69 0.66 0.61 0.46 0.65 0.64 0.50 0.26 0.18 0.27 0.24 0.26 0.28 0.25 0.22 0.21 0.21 0.19 0.17 0.12 0.10 0.11 0.15 0.16 0.19 0.19 0.16 0.18 0.17 0.15 0.10 0.08 0.08 0.08 0.14 0.09 0.10 0.12 0.13 0.12 0.10 0.09 0.09 0.16
0.94 0.68 0.63 0.59 0.58 0.61 0.55 0.34 0.22 0.23 0.25 0.33 0.29 0.27 0.24 0.24 0.22 0.20 0.19 0.16 0.16 0.15 0.12 0.10 0.09 0.17 0.18 0.15 0.14 0.16 0.16 0.12 0.08 0.07 0.08 0.12 0.07 0.09 0.14 0.14 0.12 0.10 0.09 0.10 0.16
0.97 0.65 0.55 0.58 0.60 0.59 0.42 0.24 0.23 0.28 0.32 0.29 0.30 0.25 0.24 0.26 0.23 0.20 0.18 0.16 0.16 0.16 0.10 0.11 0.12 0.18 0.18 0.17 0.17 0.15 0.14 0.16 0.13 0.13 0.10 0.11 0.11 0.13 0.13 0.12 0.11 0.09 0.09 0.09 0.15
0.80 0.67 0.52 0.63 0.62 0.52 0.36 0.25 0.26 0.36 0.35 0.35 0.27 0.27 0.22 0.25 0.22 0.20 0.18 0.19 0.18 0.18 0.18 0.15 0.10 0.17 0.18 0.19 0.18 0.16 0.18 0.13 0.15 0.10 0.08 0.09 0.09 0.08 0.11 0.11 0.11 0.09 0.08 0.09 0.15
0.73 0.56 0.61 0.65 0.61 0.43 0.29 0.29 0.31 0.37 0.38 0.33 0.32 0.29 0.28 0.26 0.26 0.21 0.19 0.21 0.21 0.18 0.19 0.16 0.13 0.14 0.18 0.16 0.15 0.15 0.15 0.16 0.16 0.14 0.11 0.09 0.09 0.13 0.12 0.12 0.11 0.09 0.08 0.09 0.14
0.62 0.45 0.68 0.66 0.38 0.38 0.31 0.33 0.37 0.35 0.41 0.38 0.37 0.35 0.31 0.31 0.27 0.24 0.21 0.21 0.25 0.20 0.14 0.17 0.14 0.11 0.14 0.19 0.20 0.19 0.18 0.17 0.13 0.13 0.15 0.13 0.11 0.16 0.14 0.14 0.12 0.10 0.09 0.09 0.14
0.52 0.51 0.67 0.62 0.33 0.31 0.35 0.34 0.37 0.35 0.35 0.38 0.33 0.37 0.37 0.31 0.25 0.27 0.26 0.29 0.28 0.22 0.17 0.17 0.13 0.10 0.12 0.17 0.20 0.18 0.19 0.18 0.18 0.18 0.14 0.12 0.11 0.17 0.15 0.14 0.13 0.10 0.09 0.09 0.13
0.53 0.39 0.51 0.54 0.49 0.38 0.33 0.32 0.32 0.39 0.37 0.39 0.37 0.37 0.35 0.33 0.33 0.28 0.26 0.29 0.29 0.26 0.27 0.21 0.15 0.12 0.10 0.13 0.18 0.15 0.17 0.18 0.17 0.13 0.14 0.14 0.13 0.16 0.15 0.13 0.12 0.11 0.10 0.09 0.13
0.56 0.43 0.48 0.37 0.40 0.41 0.40 0.35 0.31 0.32 0.38 0.38 0.37 0.34 0.34 0.30 0.31 0.29 0.30 0.28 0.28 0.29 0.24 0.21 0.13 0.15 0.16 0.18 0.19 0.18 0.18 0.18 0.16 0.16 0.14 0.15 0.15 0.17 0.17 0.14 0.11 0.11 0.10 0.09 0.12
0.50 0.46 0.52 0.45 0.45 0.40 0.41 0.36 0.34 0.35 0.36 0.35 0.34 0.38 0.36 0.32 0.32 0.30 0.30 0.28 0.25 0.27 0.23 0.24 0.16 0.18 0.14 0.17 0.17 0.16 0.18 0.18 0.18 0.17 0.16 0.18 0.16 0.20 0.20 0.16 0.11 0.09 0.09 0.09 0.10
0.70 0.66 0.52 0.45 0.43 0.38 0.38 0.38 0.38 0.40 0.41 0.41 0.40 0.42 0.38 0.40 0.39 0.40 0.39 0.35 0.30 0.26 0.23 0.21 0.18 0.16 0.12 0.17 0.16 0.12 0.14 0.16 0.17 0.17 0.16 0.15 0.17 0.20 0.20 0.16 0.12 0.09 0.08 0.08 0.10

GFSSW_prec_pwat_279.txt.gz
Precipitable_Water
0.69 0.68 0.66 0.65 0.64 0.63 0.60 0.55 0.51 0.48 0.48 0.49 0.50 0.51 0.48 0.49 0.47 0.36 0.29 0.31 0.40 0.56 0.58 0.59 0.59 0.52 0.47 0.37 0.41 0.48 0.25 0.20 0.23 0.24 0.27 0.32 0.32 0.34 0.33 0.28 0.28 0.28 0.25 0.23 0.24
0.68 0.67 0.67 0.65 0.63 0.61 0.60 0.58 0.55 0.50 0.48 0.51 0.50 0.50 0.49 0.48 0.39 0.32 0.33 0.42 0.52 0.59 0.46 0.49 0.42 0.45 0.35 0.33 0.31 0.32 0.24 0.24 0.32 0.32 0.29 0.29 0.28 0.27 0.25 0.25 0.24 0.22 0.22 0.23 0.21
0.66 0.67 0.65 0.65 0.63 0.61 0.60 0.58 0.55 0.54 0.53 0.51 0.50 0.48 0.47 0.49 0.33 0.30 0.37 0.45 0.54 0.56 0.51 0.50 0.46 0.40 0.32 0.33 0.27 0.26 0.21 0.27 0.29 0.31 0.30 0.26 0.24 0.26 0.23 0.20 0.21 0.19 0.19 0.19 0.16
0.67 0.67 0.68 0.67 0.62 0.62 0.60 0.58 0.56 0.53 0.54 0.52 0.49 0.45 0.47 0.41 0.22 0.32 0.42 0.50 0.51 0.51 0.50 0.44 0.40 0.32 0.28 0.25 0.27 0.20 0.26 0.26 0.26 0.26 0.25 0.22 0.23 0.22 0.22 0.20 0.21 0.20 0.19 0.18 0.15
0.67 0.67 0.68 0.67 0.65 0.61 0.61 0.58 0.55 0.54 0.53 0.51 0.48 0.45 0.37 0.27 0.27 0.36 0.40 0.44 0.38 0.37 0.37 0.37 0.33 0.31 0.25 0.26 0.24 0.21 0.24 0.24 0.25 0.25 0.24 0.24 0.21 0.21 0.19 0.20 0.20 0.19 0.18 0.17 0.16
0.68 0.66 0.67 0.67 0.67 0.64 0.60 0.60 0.58 0.54 0.52 0.49 0.46 0.43 0.31 0.22 0.35 0.37 0.37 0.36 0.34 0.33 0.32 0.36 0.33 0.34 0.28 0.24 0.21 0.23 0.24 0.23 0.23 0.23 0.23 0.21 0.21 0.21 0.18 0.19 0.18 0.18 0.18 0.18 0.18
0.68 0.67 0.63 0.63 0.65 0.66 0.62 0.59 0.58 0.56 0.53 0.48 0.47 0.36 0.27 0.26 0.34 0.34 0.34 0.33 0.36 0.35 0.30 0.35 0.35 0.30 0.26 0.20 0.24 0.24 0.20 0.21 0.21 0.21 0.20 0.21 0.17 0.17 0.18 0.18 0.17 0.17 0.18 0.19 0.19
0.69 0.67 0.65 0.62 0.62 0.64 0.65 0.60 0.58 0.56 0.53 0.47 0.42 0.31 0.22 0.33 0.35 0.32 0.31 0.31 0.35 0.36 0.34 0.34 0.33 0.26 0.23 0.24 0.23 0.19 0.20 0.13 0.18 0.19 0.20 0.20 0.13 0.17 0.18 0.17 0.16 0.17 0.19 0.19 0.18
0.72 0.68 0.66 0.63 0.61 0.62 0.63 0.65 0.59 0.55 0.51 0.47 0.36 0.28 0.22 0.33 0.29 0.30 0.32 0.27 0.31 0.33 0.33 0.31 0.28 0.22 0.23 0.19 0.16 0.18 0.12 0.13 0.14 0.19 0.19 0.18 0.14 0.17 0.18 0.17 0.16 0.17 0.17 0.18 0.17
0.75 0.71 0.67 0.64 0.61 0.60 0.60 0.62 0.59 0.52 0.48 0.44 0.36 0.27 0.27 0.24 0.29 0.30 0.32 0.31 0.27 0.28 0.26 0.25 0.22 0.18 0.20 0.15 0.10 0.11 0.12 0.13 0.12 0.17 0.17 0.16 0.15 0.18 0.17 0.16 0.16 0.16 0.16 0.17 0.16
0.77 0.72 0.68 0.65 0.61 0.60 0.56 0.48 0.39 0.39 0.40 0.31 0.29 0.27 0.27 0.30 0.32 0.29 0.31 0.27 0.27 0.24 0.17 0.21 0.16 0.13 0.15 0.17 0.16 0.15 0.14 0.12 0.14 0.18 0.16 0.15 0.15 0.16 0.17 0.16 0.16 0.15 0.16 0.15 0.14
0.84 0.76 0.70 0.64 0.60 0.61 0.56 0.41 0.40 0.45 0.34 0.38 0.34 0.32 0.33 0.32 0.25 0.27 0.31 0.22 0.22 0.16 0.19 0.17 0.13 0.16 0.18 0.18 0.16 0.15 0.13 0.12 0.13 0.17 0.15 0.14 0.13 0.16 0.17 0.16 0.16 0.15 0.15 0.14 0.14
0.89 0.81 0.72 0.65 0.59 0.55 0.50 0.49 0.59 0.50 0.31 0.33 0.35 0.32 0.31 0.31 0.25 0.25 0.28 0.24 0.21 0.16 0.16 0.14 0.16 0.18 0.18 0.16 0.15 0.15 0.13 0.13 0.11 0.14 0.16 0.14 0.10 0.12 0.15 0.17 0.16 0.15 0.15 0.14 0.14
0.93 0.86 0.76 0.65 0.50 0.54 0.49 0.60 0.61 0.47 0.22 0.24 0.28 0.31 0.32 0.32 0.24 0.30 0.31 0.26 0.21 0.14 0.16 0.15 0.17 0.16 0.16 0.15 0.16 0.13 0.16 0.15 0.14 0.11 0.09 0.14 0.06 0.10 0.12 0.13 0.14 0.13 0.13 0.13 0.14
1.00 0.89 0.80 0.67 0.51 0.49 0.56 0.63 0.59 0.42 0.12 0.25 0.27 0.37 0.34 0.28 0.27 0.26 0.32 0.28 0.19 0.16 0.16 0.13 0.14 0.14 0.14 0.16 0.17 0.14 0.17 0.17 0.16 0.12 0.13 0.12 0.08 0.09 0.12 0.11 0.11 0.11 0.12 0.12 0.14
1.05 0.94 0.83 0.62 0.57 0.58 0.63 0.62 0.47 0.22 0.13 0.21 0.30 0.28 0.26 0.28 0.28 0.28 0.27 0.29 0.26 0.18 0.16 0.16 0.19 0.17 0.16 0.17 0.17 0.19 0.17 0.18 0.18 0.15 0.08 0.11 0.09 0.07 0.09 0.11 0.11 0.10 0.11 0.11 0.12
1.06 0.99 0.81 0.66 0.48 0.63 0.62 0.47 0.24 0.16 0.24 0.22 0.24 0.30 0.27 0.25 0.25 0.25 0.22 0.21 0.17 0.12 0.10 0.14 0.15 0.17 0.17 0.15 0.18 0.17 0.14 0.11 0.10 0.10 0.08 0.13 0.09 0.08 0.12 0.13 0.12 0.09 0.09 0.11 0.12
1.05 1.01 0.80 0.64 0.66 0.63 0.55 0.33 0.18 0.21 0.21 0.28 0.28 0.29 0.26 0.27 0.26 0.26 0.22 0.18 0.21 0.18 0.13 0.09 0.08 0.15 0.18 0.16 0.14 0.14 0.14 0.11 0.09 0.10 0.10 0.12 0.07 0.08 0.13 0.14 0.13 0.10 0.09 0.10 0.10
1.05 0.89 0.77 0.61 0.64 0.59 0.44 0.24 0.21 0.23 0.28 0.26 0.26 0.23 0.25 0.28 0.27 0.26 0.24 0.21 0.20 0.21 0.13 0.10 0.11 0.17 0.16 0.16 0.16 0.14 0.13 0.16 0.13 0.15 0.13 0.11 0.11 0.13 0.13 0.13 0.12 0.09 0.08 0.09 0.10
0.89 0.76 0.68 0.71 0.64 0.52 0.37 0.27 0.26 0.30 0.33 0.30 0.23 0.25 0.22 0.27 0.26 0.26 0.25 0.25 0.22 0.23 0.22 0.15 0.10 0.15 0.16 0.18 0.17 0.16 0.17 0.12 0.14 0.10 0.10 0.11 0.10 0.09 0.10 0.11 0.12 0.08 0.07 0.08 0.10
0.79 0.61 0.67 0.77 0.63 0.44 0.30 0.29 0.31 0.34 0.35 0.29 0.26 0.25 0.26 0.26 0.28 0.25 0.25 0.26 0.26 0.23 0.23 0.20 0.14 0.12 0.16 0.14 0.14 0.14 0.13 0.15 0.16 0.14 0.11 0.11 0.10 0.14 0.12 0.12 0.12 0.10 0.07 0.08 0.09
0.70 0.49 0.69 0.72 0.44 0.40 0.31 0.34 0.37 0.33 0.36 0.33 0.33 0.31 0.29 0.29 0.29 0.29 0.26 0.29 0.32 0.27 0.20 0.20 0.15 0.11 0.12 0.17 0.18 0.16 0.14 0.16 0.14 0.12 0.14 0.14 0.12 0.18 0.16 0.14 0.14 0.13 0.09 0.08 0.09
0.60 0.57 0.70 0.65 0.36 0.36 0.39 0.35 0.37 0.34 0.34 0.32 0.31 0.33 0.34 0.31 0.27 0.31 0.31 0.36 0.35 0.30 0.23 0.22 0.15 0.11 0.11 0.15 0.18 0.15 0.17 0.18 0.18 0.18 0.14 0.12 0.12 0.19 0.17 0.16 0.15 0.14 0.12 0.08 0.09
0.60 0.45 0.55 0.55 0.49 0.40 0.37 0.35 0.33 0.38 0.35 0.36 0.33 0.34 0.32 0.30 0.33 0.29 0.32 0.35 0.36 0.34 0.33 0.28 0.20 0.16 0.12 0.12 0.15 0.13 0.16 0.18 0.18 0.15 0.15 0.14 0.14 0.17 0.17 0.16 0.16 0.16 0.13 0.10 0.09
0.63 0.50 0.50 0.38 0.39 0.39 0.39 0.38 0.34 0.32 0.37 0.37 0.33 0.32 0.30 0.27 0.29 0.28 0.32 0.35 0.36 0.40 0.35 0.30 0.20 0.20 0.19 0.18 0.17 0.15 0.15 0.17 0.16 0.17 0.14 0.14 0.14 0.16 0.19 0.18 0.18 0.18 0.14 0.11 0.09
0.61 0.53 0.55 0.44 0.44 0.40 0.39 0.34 0.33 0.36 0.36 0.33 0.31 0.31 0.32 0.29 0.29 0.28 0.31 0.31 0.32 0.36 0.34 0.33 0.24 0.23 0.19 0.21 0.20 0.16 0.17 0.17 0.17 0.17 0.16 0.16 0.15 0.19 0.21 0.20 0.20 0.18 0.15 0.11 0.09
0.77 0.71 0.55 0.48 0.43 0.36 0.35 0.36 0.36 0.41 0.42 0.41 0.37 0.34 0.31 0.33 0.36 0.36 0.37 0.37 0.36 0.34 0.31 0.31 0.27 0.23 0.18 0.21 0.19 0.14 0.15 0.16 0.16 0.17 0.16 0.13 0.14 0.18 0.19 0.19 0.20 0.20 0.16 0.12 0.10

GFSSW_prec_pwat_285.txt.gz
Precipitable_Water
0.68 0.66 0.68 0.68 0.64 0.62 0.59 0.54 0.52 0.50 0.51 0.50 0.50 0.51 0.49 0.48 0.47 0.41 0.30 0.33 0.41 0.52 0.59 0.63 0.61 0.53 0.51 0.42 0.43 0.48 0.33 0.28 0.31 0.27 0.33 0.32 0.30 0.35 0.37 0.31 0.30 0.29 0.26 0.27 0.28
0.68 0.66 0.66 0.66 0.63 0.61 0.61 0.57 0.53 0.51 0.50 0.50 0.50 0.49 0.48 0.49 0.44 0.32 0.39 0.43 0.53 0.56 0.51 0.56 0.53 0.50 0.42 0.38 0.35 0.37 0.29 0.33 0.32 0.31 0.30 0.31 0.30 0.28 0.27 0.24 0.23 0.23 0.25 0.25 0.24
0.69 0.68 0.66 0.66 0.64 0.62 0.60 0.59 0.56 0.53 0.52 0.52 0.49 0.47 0.46 0.51 0.38 0.30 0.41 0.51 0.51 0.57 0.53 0.59 0.52 0.43 0.36 0.34 0.29 0.28 0.27 0.30 0.28 0.30 0.31 0.27 0.26 0.27 0.24 0.21 0.21 0.19 0.20 0.22 0.21
0.69 0.69 0.68 0.67 0.65 0.64 0.61 0.60 0.59 0.56 0.55 0.53 0.49 0.46 0.46 0.47 0.28 0.36 0.40 0.48 0.45 0.52 0.49 0.46 0.44 0.39 0.31 0.28 0.27 0.24 0.26 0.28 0.26 0.28 0.26 0.24 0.24 0.22 0.24 0.24 0.23 0.21 0.22 0.21 0.19
0.69 0.69 0.68 0.67 0.66 0.65 0.64 0.60 0.59 0.58 0.55 0.53 0.49 0.46 0.40 0.31 0.28 0.40 0.40 0.42 0.40 0.40 0.42 0.43 0.39 0.36 0.30 0.26 0.25 0.23 0.24 0.25 0.25 0.25 0.25 0.25 0.22 0.22 0.21 0.23 0.22 0.21 0.20 0.19 0.19
0.69 0.67 0.64 0.64 0.65 0.64 0.65 0.63 0.59 0.58 0.55 0.54 0.48 0.44 0.34 0.25 0.36 0.38 0.37 0.37 0.36 0.35 0.36 0.39 0.38 0.36 0.29 0.24 0.23 0.25 0.24 0.24 0.23 0.22 0.24 0.22 0.21 0.22 0.20 0.21 0.19 0.18 0.19 0.19 0.20
0.75 0.70 0.67 0.63 0.62 0.62 0.62 0.63 0.62 0.57 0.55 0.53 0.48 0.41 0.28 0.29 0.36 0.38 0.36 0.35 0.37 0.38 0.33 0.37 0.36 0.31 0.27 0.21 0.25 0.25 0.20 0.22 0.21 0.21 0.21 0.22 0.18 0.17 0.20 0.19 0.17 0.17 0.18 0.20 0.21
0.77 0.75 0.71 0.66 0.62 0.61 0.60 0.60 0.61 0.60 0.54 0.51 0.45 0.35 0.27 0.34 0.36 0.34 0.35 0.34 0.36 0.39 0.37 0.37 0.36 0.29 0.25 0.25 0.23 0.20 0.23 0.19 0.21 0.19 0.20 0.19 0.17 0.19 0.19 0.17 0.16 0.16 0.17 0.19 0.20
0.79 0.76 0.73 0.69 0.65 0.61 0.60 0.59 0.58 0.58 0.51 0.47 0.39 0.32 0.26 0.35 0.30 0.33 0.33 0.31 0.33 0.33 0.32 0.32 0.30 0.23 0.23 0.21 0.21 0.21 0.16 0.16 0.18 0.19 0.19 0.17 0.16 0.19 0.18 0.16 0.16 0.15 0.15 0.18 0.19
0.80 0.76 0.73 0.70 0.66 0.59 0.58 0.58 0.58 0.52 0.48 0.47 0.39 0.29 0.30 0.27 0.31 0.31 0.34 0.35 0.30 0.30 0.29 0.27 0.25 0.22 0.21 0.20 0.15 0.14 0.14 0.15 0.14 0.19 0.17 0.15 0.15 0.18 0.17 0.16 0.16 0.15 0.14 0.16 0.17
0.83 0.78 0.74 0.70 0.65 0.59 0.58 0.49 0.41 0.37 0.37 0.33 0.32 0.30 0.28 0.31 0.33 0.30 0.32 0.30 0.29 0.26 0.22 0.25 0.18 0.19 0.19 0.18 0.18 0.15 0.14 0.14 0.16 0.19 0.15 0.14 0.15 0.16 0.17 0.15 0.15 0.14 0.13 0.13 0.15
0.94 0.80 0.74 0.70 0.62 0.58 0.58 0.44 0.43 0.46 0.33 0.37 0.35 0.33 0.33 0.33 0.27 0.30 0.33 0.25 0.24 0.21 0.23 0.20 0.18 0.19 0.17 0.18 0.17 0.16 0.15 0.16 0.16 0.17 0.14 0.13 0.13 0.15 0.16 0.16 0.15 0.14 0.13 0.13 0.14
1.02 0.87 0.76 0.69 0.60 0.57 0.53 0.49 0.59 0.52 0.30 0.32 0.35 0.33 0.34 0.33 0.27 0.28 0.31 0.27 0.23 0.21 0.21 0.16 0.20 0.18 0.17 0.17 0.16 0.17 0.15 0.15 0.13 0.15 0.16 0.13 0.12 0.12 0.15 0.17 0.16 0.15 0.15 0.14 0.13
0.99 0.93 0.80 0.67 0.54 0.53 0.50 0.57 0.60 0.54 0.23 0.26 0.27 0.32 0.34 0.35 0.28 0.33 0.33 0.30 0.23 0.20 0.20 0.17 0.19 0.17 0.16 0.16 0.17 0.15 0.18 0.16 0.16 0.14 0.12 0.14 0.09 0.11 0.12 0.12 0.14 0.12 0.13 0.13 0.13
0.98 0.98 0.83 0.74 0.55 0.50 0.55 0.60 0.60 0.46 0.16 0.26 0.26 0.36 0.34 0.30 0.31 0.29 0.34 0.30 0.24 0.22 0.20 0.18 0.15 0.15 0.14 0.16 0.17 0.16 0.18 0.17 0.18 0.16 0.14 0.14 0.10 0.13 0.11 0.10 0.11 0.10 0.11 0.12 0.13
0.97 0.99 0.88 0.73 0.61 0.58 0.62 0.60 0.49 0.25 0.17 0.22 0.27 0.26 0.26 0.28 0.28 0.30 0.29 0.31 0.30 0.24 0.23 0.20 0.19 0.16 0.16 0.17 0.17 0.19 0.18 0.20 0.20 0.19 0.16 0.15 0.10 0.11 0.09 0.10 0.10 0.10 0.10 0.12 0.12
0.96 1.00 0.92 0.79 0.53 0.63 0.63 0.48 0.26 0.19 0.26 0.22 0.23 0.26 0.26 0.26 0.26 0.26 0.25 0.23 0.21 0.18 0.19 0.19 0.16 0.17 0.17 0.15 0.18 0.17 0.16 0.17 0.17 0.16 0.15 0.15 0.10 0.11 0.11 0.11 0.11 0.09 0.09 0.11 0.12
0.92 0.98 0.96 0.80 0.69 0.63 0.55 0.34 0.21 0.25 0.23 0.28 0.27 0.26 0.24 0.26 0.26 0.27 0.26 0.22 0.25 0.22 0.18 0.17 0.14 0.16 0.17 0.16 0.14 0.16 0.15 0.14 0.11 0.13 0.13 0.17 0.12 0.14 0.14 0.13 0.13 0.11 0.10 0.11 0.11
0.89 0.90 0.83 0.77 0.67 0.61 0.45 0.27 0.24 0.26 0.28 0.26 0.26 0.22 0.23 0.25 0.25 0.25 0.25 0.25 0.25 0.24 0.18 0.17 0.16 0.18 0.17 0.17 0.16 0.16 0.14 0.18 0.14 0.16 0.13 0.16 0.16 0.17 0.15 0.13 0.13 0.11 0.10 0.10 0.11
0.79 0.80 0.75 0.82 0.70 0.54 0.40 0.29 0.31 0.32 0.31 0.30 0.24 0.25 0.22 0.24 0.23 0.24 0.24 0.27 0.26 0.26 0.26 0.21 0.16 0.20 0.18 0.17 0.17 0.15 0.17 0.14 0.17 0.13 0.13 0.14 0.14 0.14 0.14 0.14 0.14 0.12 0.10 0.10 0.12
0.77 0.66 0.74 0.84 0.68 0.48 0.33 0.34 0.35 0.36 0.34 0.30 0.28 0.26 0.26 0.25 0.26 0.25 0.24 0.27 0.27 0.26 0.28 0.24 0.20 0.21 0.20 0.16 0.15 0.14 0.14 0.14 0.15 0.14 0.14 0.13 0.15 0.19 0.17 0.18 0.17 0.16 0.13 0.11 0.11
0.75 0.53 0.79 0.79 0.50 0.46 0.38 0.39 0.44 0.36 0.37 0.35 0.33 0.30 0.28 0.29 0.26 0.26 0.25 0.28 0.31 0.29 0.25 0.26 0.22 0.17 0.18 0.20 0.19 0.17 0.14 0.15 0.13 0.17 0.15 0.16 0.15 0.20 0.18 0.20 0.21 0.19 0.18 0.15 0.12
0.65 0.68 0.79 0.75 0.44 0.44 0.45 0.43 0.43 0.38 0.35 0.34 0.31 0.33 0.33 0.29 0.26 0.30 0.30 0.35 0.35 0.31 0.27 0.27 0.22 0.17 0.18 0.21 0.20 0.16 0.17 0.17 0.18 0.17 0.14 0.14 0.17 0.22 0.20 0.20 0.21 0.22 0.21 0.19 0.17
0.67 0.53 0.62 0.64 0.61 0.50 0.46 0.43 0.40 0.44 0.39 0.38 0.35 0.36 0.32 0.29 0.32 0.30 0.30 0.34 0.35 0.32 0.32 0.31 0.27 0.23 0.19 0.22 0.25 0.20 0.19 0.19 0.17 0.14 0.15 0.15 0.16 0.20 0.23 0.24 0.22 0.22 0.24 0.22 0.19
0.69 0.59 0.70 0.50 0.48 0.48 0.46 0.45 0.42 0.39 0.42 0.41 0.35 0.33 0.31 0.28 0.29 0.28 0.32 0.32 0.34 0.36 0.33 0.31 0.24 0.27 0.27 0.27 0.26 0.26 0.23 0.22 0.18 0.17 0.15 0.14 0.16 0.19 0.20 0.22 0.24 0.25 0.23 0.23 0.21
0.67 0.61 0.66 0.59 0.56 0.50 0.48 0.43 0.41 0.41 0.41 0.36 0.34 0.36 0.34 0.30 0.31 0.28 0.32 0.32 0.30 0.34 0.31 0.31 0.24 0.25 0.23 0.27 0.27 0.24 0.27 0.25 0.23 0.21 0.19 0.18 0.16 0.21 0.23 0.22 0.22 0.22 0.22 0.22 0.23
0.86 0.77 0.64 0.61 0.51 0.47 0.46 0.46 0.43 0.46 0.46 0.44 0.41 0.39 0.37 0.37 0.39 0.39 0.39 0.38 0.36 0.32 0.30 0.29 0.27 0.24 0.20 0.26 0.25 0.22 0.24 0.25 0.25 0.24 0.22 0.17 0.19 0.23 0.20 0.20 0.21 0.21 0.21 0.21 0.23

GFSSW_prec_pwat_291.txt.gz
Precipitable_Water
0.66 0.67 0.65 0.63 0.61 0.59 0.54 0.52 0.49 0.49 0.49 0.49 0.49 0.49 0.47 0.47 0.44 0.40 0.30 0.32 0.38 0.51 0.53 0.59 0.62 0.54 0.53 0.44 0.41 0.46 0.38 0.34 0.35 0.34 0.30 0.34 0.30 0.32 0.32 0.28 0.29 0.28 0.27 0.29 0.29
0.68 0.67 0.66 0.65 0.62 0.59 0.58 0.54 0.51 0.49 0.48 0.48 0.47 0.48 0.47 0.48 0.41 0.35 0.37 0.45 0.51 0.55 0.49 0.56 0.54 0.52 0.44 0.40 0.35 0.31 0.31 0.33 0.41 0.35 0.26 0.28 0.26 0.27 0.25 0.22 0.21 0.23 0.27 0.28 0.22
0.68 0.68 0.67 0.66 0.64 0.63 0.59 0.57 0.54 0.52 0.50 0.49 0.48 0.46 0.46 0.50 0.39 0.33 0.43 0.42 0.45 0.54 0.57 0.55 0.55 0.43 0.37 0.39 0.33 0.29 0.23 0.30 0.28 0.28 0.28 0.25 0.25 0.27 0.20 0.17 0.20 0.20 0.22 0.21 0.21
0.71 0.68 0.68 0.68 0.66 0.63 0.63 0.59 0.57 0.54 0.53 0.52 0.50 0.47 0.45 0.50 0.25 0.36 0.41 0.39 0.39 0.51 0.49 0.46 0.45 0.40 0.36 0.30 0.29 0.23 0.28 0.28 0.25 0.26 0.26 0.23 0.24 0.22 0.21 0.20 0.23 0.24 0.22 0.20 0.18
0.72 0.70 0.68 0.67 0.67 0.66 0.65 0.62 0.59 0.58 0.54 0.52 0.51 0.48 0.39 0.34 0.29 0.38 0.38 0.40 0.39 0.39 0.42 0.41 0.39 0.37 0.31 0.30 0.27 0.24 0.23 0.24 0.24 0.24 0.24 0.24 0.20 0.20 0.20 0.22 0.23 0.23 0.21 0.18 0.17
0.76 0.73 0.70 0.66 0.65 0.65 0.65 0.63 0.61 0.57 0.54 0.53 0.50 0.46 0.37 0.25 0.39 0.40 0.37 0.36 0.33 0.35 0.34 0.39 0.35 0.36 0.30 0.26 0.22 0.25 0.23 0.22 0.22 0.21 0.22 0.20 0.19 0.21 0.20 0.21 0.20 0.20 0.18 0.17 0.17
0.76 0.75 0.72 0.69 0.65 0.63 0.62 0.60 0.59 0.58 0.56 0.52 0.50 0.40 0.31 0.28 0.37 0.39 0.36 0.36 0.38 0.37 0.31 0.36 0.36 0.27 0.27 0.20 0.25 0.23 0.21 0.24 0.23 0.22 0.19 0.20 0.15 0.18 0.21 0.19 0.18 0.17 0.17 0.16 0.17
0.78 0.75 0.72 0.69 0.66 0.63 0.60 0.58 0.56 0.57 0.56 0.53 0.48 0.36 0.27 0.36 0.36 0.34 0.37 0.32 0.37 0.38 0.35 0.35 0.35 0.27 0.24 0.24 0.25 0.23 0.25 0.19 0.23 0.23 0.21 0.17 0.09 0.19 0.21 0.18 0.15 0.15 0.15 0.15 0.16
0.80 0.75 0.72 0.70 0.67 0.63 0.59 0.57 0.56 0.56 0.50 0.49 0.40 0.34 0.27 0.36 0.30 0.33 0.35 0.31 0.32 0.32 0.32 0.31 0.29 0.21 0.22 0.23 0.23 0.25 0.16 0.18 0.18 0.23 0.20 0.15 0.10 0.16 0.19 0.17 0.15 0.14 0.14 0.14 0.16
0.88 0.78 0.72 0.69 0.67 0.62 0.58 0.58 0.59 0.51 0.43 0.47 0.41 0.29 0.32 0.28 0.31 0.31 0.34 0.35 0.30 0.30 0.31 0.29 0.28 0.24 0.24 0.20 0.12 0.16 0.15 0.15 0.15 0.19 0.19 0.14 0.11 0.14 0.17 0.17 0.15 0.13 0.13 0.13 0.14
0.98 0.86 0.75 0.70 0.67 0.63 0.55 0.54 0.43 0.39 0.38 0.31 0.30 0.28 0.30 0.32 0.34 0.30 0.32 0.29 0.29 0.28 0.22 0.27 0.19 0.17 0.19 0.20 0.18 0.16 0.15 0.14 0.18 0.22 0.17 0.13 0.11 0.13 0.15 0.15 0.15 0.14 0.12 0.12 0.13
0.96 0.94 0.78 0.69 0.64 0.65 0.63 0.46 0.47 0.52 0.33 0.38 0.34 0.31 0.32 0.32 0.27 0.30 0.32 0.25 0.24 0.22 0.26 0.22 0.17 0.22 0.22 0.18 0.15 0.16 0.15 0.15 0.18 0.21 0.16 0.13 0.10 0.11 0.13 0.14 0.15 0.14 0.12 0.12 0.13
0.93 0.94 0.84 0.71 0.64 0.61 0.52 0.49 0.58 0.56 0.30 0.34 0.36 0.31 0.31 0.32 0.27 0.28 0.31 0.28 0.23 0.20 0.22 0.20 0.19 0.22 0.18 0.15 0.14 0.15 0.15 0.16 0.15 0.17 0.18 0.18 0.11 0.11 0.13 0.14 0.15 0.15 0.14 0.13 0.12
0.91 0.91 0.88 0.72 0.57 0.56 0.50 0.58 0.60 0.54 0.23 0.29 0.30 0.32 0.33 0.33 0.27 0.33 0.33 0.29 0.24 0.19 0.21 0.20 0.23 0.18 0.15 0.14 0.15 0.12 0.17 0.17 0.16 0.15 0.12 0.19 0.08 0.10 0.13 0.11 0.13 0.14 0.13 0.13 0.13
0.89 0.87 0.90 0.80 0.65 0.52 0.60 0.62 0.59 0.49 0.16 0.32 0.29 0.37 0.33 0.30 0.31 0.30 0.34 0.29 0.22 0.23 0.21 0.17 0.20 0.19 0.15 0.14 0.17 0.13 0.17 0.15 0.16 0.16 0.15 0.17 0.14 0.11 0.16 0.11 0.10 0.12 0.13 0.13 0.13
0.86 0.85 0.92 0.79 0.71 0.62 0.64 0.61 0.52 0.26 0.18 0.26 0.27 0.25 0.25 0.27 0.28 0.30 0.29 0.32 0.30 0.23 0.23 0.20 0.23 0.21 0.18 0.17 0.16 0.17 0.15 0.17 0.21 0.18 0.12 0.21 0.17 0.12 0.15 0.14 0.11 0.12 0.13 0.13 0.13
0.82 0.85 0.89 0.82 0.58 0.72 0.63 0.51 0.27 0.19 0.32 0.25 0.24 0.27 0.25 0.25 0.26 0.27 0.24 0.23 0.20 0.17 0.19 0.23 0.21 0.21 0.21 0.15 0.18 0.16 0.14 0.11 0.14 0.15 0.14 0.20 0.17 0.15 0.17 0.19 0.16 0.13 0.13 0.13 0.13
0.82 0.84 0.89 0.84 0.83 0.71 0.59 0.38 0.22 0.31 0.28 0.32 0.28 0.28 0.24 0.27 0.26 0.26 0.24 0.22 0.26 0.24 0.20 0.16 0.14 0.21 0.20 0.17 0.15 0.14 0.14 0.11 0.07 0.10 0.13 0.17 0.11 0.13 0.20 0.21 0.21 0.18 0.17 0.16 0.14
0.82 0.79 0.82 0.86 0.80 0.66 0.49 0.29 0.27 0.30 0.33 0.30 0.30 0.24 0.24 0.27 0.26 0.26 0.24 0.23 0.26 0.27 0.19 0.18 0.18 0.23 0.20 0.19 0.18 0.17 0.11 0.17 0.11 0.13 0.12 0.13 0.17 0.20 0.22 0.20 0.19 0.18 0.19 0.18 0.16
0.73 0.74 0.75 0.86 0.79 0.62 0.46 0.33 0.35 0.39 0.38 0.34 0.24 0.28 0.25 0.27 0.25 0.25 0.25 0.28 0.26 0.29 0.28 0.22 0.16 0.22 0.22 0.21 0.20 0.17 0.20 0.12 0.13 0.08 0.09 0.12 0.14 0.15 0.19 0.18 0.18 0.18 0.19 0.21 0.22
0.73 0.58 0.74 0.82 0.74 0.54 0.41 0.38 0.41 0.45 0.42 0.36 0.31 0.30 0.30 0.29 0.29 0.27 0.27 0.30 0.31 0.27 0.28 0.25 0.20 0.19 0.22 0.19 0.18 0.17 0.15 0.15 0.15 0.15 0.10 0.09 0.09 0.18 0.18 0.19 0.16 0.18 0.21 0.23 0.23
0.73 0.50 0.81 0.83 0.52 0.51 0.44 0.44 0.46 0.46 0.47 0.41 0.39 0.35 0.33 0.33 0.31 0.28 0.28 0.30 0.34 0.30 0.24 0.27 0.23 0.18 0.20 0.24 0.24 0.21 0.17 0.17 0.13 0.13 0.15 0.15 0.11 0.18 0.20 0.20 0.22 0.24 0.26 0.26 0.26
0.61 0.63 0.82 0.81 0.48 0.49 0.51 0.49 0.49 0.48 0.47 0.45 0.40 0.39 0.38 0.33 0.31 0.32 0.33 0.37 0.36 0.33 0.30 0.30 0.23 0.18 0.19 0.22 0.24 0.19 0.19 0.18 0.20 0.21 0.15 0.13 0.12 0.21 0.19 0.20 0.22 0.23 0.25 0.27 0.27
0.65 0.51 0.63 0.69 0.66 0.56 0.51 0.49 0.50 0.57 0.52 0.51 0.46 0.43 0.38 0.34 0.36 0.32 0.34 0.38 0.38 0.35 0.37 0.35 0.26 0.22 0.18 0.22 0.25 0.21 0.23 0.24 0.21 0.17 0.17 0.17 0.17 0.20 0.22 0.23 0.25 0.24 0.24 0.24 0.25
0.68 0.56 0.64 0.50 0.54 0.57 0.57 0.56 0.52 0.52 0.58 0.55 0.47 0.43 0.38 0.33 0.33 0.32 0.35 0.36 0.37 0.36 0.34 0.31 0.24 0.26 0.26 0.28 0.27 0.24 0.23 0.23 0.20 0.20 0.17 0.18 0.20 0.21 0.25 0.27 0.26 0.27 0.26 0.24 0.23
0.63 0.59 0.68 0.63 0.62 0.55 0.56 0.53 0.50 0.54 0.55 0.51 0.46 0.45 0.43 0.38 0.38 0.33 0.37 0.38 0.36 0.38 0.33 0.33 0.26 0.28 0.25 0.28 0.28 0.23 0.24 0.23 0.22 0.21 0.19 0.19 0.18 0.25 0.28 0.30 0.28 0.28 0.24 0.22 0.23
0.85 0.86 0.71 0.61 0.60 0.57 0.55 0.52 0.50 0.52 0.57 0.58 0.53 0.48 0.44 0.44 0.47 0.46 0.46 0.45 0.44 0.39 0.35 0.34 0.30 0.28 0.22 0.27 0.26 0.19 0.19 0.20 0.20 0.21 0.21 0.18 0.21 0.25 0.25 0.27 0.27 0.26 0.26 0.25 0.24